Home   Weather   Montfoort   Past weeks

Flag for Netherlands Past Weather in Montfoort, Netherlands — Yesterday and Last 2 Weeks

Now
32 °F

Low clouds.


Feels Like: 29 °F
Forecast: 24 / 32 °F
Wind: 3 mph from Southeast

Location: De Bilt

Current Time: Jan 25, 2017 at 2:44:47 am

Latest Report: Jan 25, 2017 at 1:00 am


Visibility: 1 mi

Pressure: 30.45 "Hg

Humidity: 98%

Dew Point: 31 °F

Location of MontfoortLocation

Past Weather in Montfoort — Graph

°F

Montfoort Temperature Yesterday

Maximum temperature yesterday: 36 °F (at 2:00 pm)
Minimum temperature yesterday: 32 °F (at 8:00 pm)
Average temperature yesterday: 34 °F

High & Low Weather Summary for the Past Weeks

 TemperatureHumidityPressure
High50 °F (Jan 11, 12:00 pm)100% (Jan 16, 7:00 am)30.75 "Hg (Jan 16, 7:00 am)
Low19 °F (Jan 22, 7:00 am)41% (Jan 20, 1:00 pm)29.06 "Hg (Jan 13, 12:00 am)
Average34 °F88%30.21 "Hg
* Reported Jan 10 1:00 am — Jan 25 1:00 am, Montfoort, Weather by CustomWeather, © 2017

Note: Actual official high and low records may vary slightly from our data, if they occured in-between our weather recording intervals... More about our weather records

Advertising

Montfoort Weather History for the Previous 24 Hours

Scroll right to see more
 ConditionsComfort  
Time TempWeatherWind HumidityBarometerVisibility
1:00 am
Wed, Jan 25
32 °FLow clouds.3 mph98%30.45 "Hg1 mi
12:00 am33 °FFog.3 mph96%30.46 "Hg2 mi
11:00 pm
Tue, Jan 24
33 °FLow clouds.2 mph99%30.45 "Hg2 mi
10:00 pm33 °FLow clouds.2 mph100%30.44 "Hg1 mi
9:00 pm32 °FDense fog.2 mph100%30.45 "Hg0 mi
8:00 pm32 °FDense fog.3 mph100%30.44 "Hg0 mi
7:00 pm33 °FDense fog.2 mph100%30.43 "Hg0 mi
6:00 pm33 °FDense fog.2 mph100%30.42 "Hg0 mi
5:00 pm34 °FDense fog.2 mph100%30.41 "Hg1 mi
4:00 pm34 °FLow clouds.3 mph100%30.40 "Hg1 mi
3:00 pm35 °FLow clouds.2 mph100%30.39 "Hg1 mi
2:00 pm36 °FDense fog.2 mph100%30.39 "Hg1 mi
1:00 pm35 °FDense fog.2 mph100%30.39 "Hg1 mi
12:00 pm35 °FDense fog.2 mph100%30.39 "Hg0 mi
11:00 am34 °FDense fog.2 mph100%30.38 "Hg0 mi
10:00 am33 °FDense fog.2 mph100%30.36 "Hg0 mi
9:00 am33 °FDense fog.1 mph100%30.34 "Hg0 mi
8:00 am33 °FDense fog.2 mph99%30.32 "Hg0 mi
7:00 am33 °FDense fog.1 mph100%30.31 "Hg0 mi
6:00 am34 °FDense fog.1 mph100%30.30 "Hg0 mi
5:00 am34 °FDense fog.2 mph100%30.29 "Hg1 mi
4:00 am34 °FSprinkles. Dense fog.2 mph99%30.29 "Hg1 mi
3:00 am34 °FLow clouds.2 mph100%30.30 "Hg1 mi
2:00 am34 °FLight freezing rain. Dense fog.1 mph100%30.30 "Hg0 mi
Weather by CustomWeather, © 2017

See weather overviewHow to use our weather pages